• In Belarus
  • List of Countries
  • For 7 days
  • Water Temperature
  • Weather Map
  • Weather Widgets
  • user-avatar
    Login

    Hourly Weather Volyn

    Today, 1 June, Monday

    Time Temperature Precipitation Wind Pressure Humidity
    00:00 +7°C° 1 mm 5 mps 736 mmHg 91%
    01:00 +7°C° 1 mm 5 mps 737 mmHg 93%
    02:00 +7°C° 1 mm 5 mps 737 mmHg 95%
    03:00 +7°C° 1.6 mm 6 mps 736 mmHg 95%
    04:00 +7°C° 1.6 mm 6 mps 736 mmHg 95%
    05:00 +7°C° 1.6 mm 6 mps 736 mmHg 95%
    06:00 +7°C° 0.6 mm 6 mps 736 mmHg 94%
    07:00 +7°C° 0.6 mm 6 mps 736 mmHg 93%
    08:00 +7°C° 0.6 mm 6 mps 737 mmHg 93%
    09:00 +7°C° 0.2 mm 6 mps 737 mmHg 93%
    10:00 +7°C° 0.2 mm 6 mps 737 mmHg 93%
    11:00 +8°C° 0.2 mm 6 mps 737 mmHg 93%
    12:00 +8°C° 0.1 mm 6 mps 737 mmHg 93%
    13:00 +9°C° 0.1 mm 6 mps 737 mmHg 92%
    14:00 +9°C° 0.1 mm 6 mps 737 mmHg 92%
    15:00 +9°C° 0.1 mm 6 mps 737 mmHg 92%
    16:00 +10°C° 0.1 mm 7 mps 737 mmHg 92%
    17:00 +10°C° 0.1 mm 7 mps 737 mmHg 92%
    18:00 +10°C° 0.1 mm 7 mps 737 mmHg 92%
    19:00 +10°C° 0.1 mm 7 mps 737 mmHg 92%
    20:00 +10°C° 0.1 mm 8 mps 737 mmHg 92%
    21:00 +10°C° 0.8 mm 7 mps 737 mmHg 93%
    22:00 +10°C° 0.8 mm 7 mps 737 mmHg 95%
    23:00 +10°C° 0.8 mm 7 mps 737 mmHg 96%

    Tomorrow, 2 June, Tuesday

    Time Temperature Precipitation Wind Pressure Humidity
    00:00 +10°C° 0.4 mm 7 mps 737 mmHg 96%
    01:00 +10°C° 0.4 mm 7 mps 736 mmHg 96%
    02:00 +10°C° 0.4 mm 7 mps 736 mmHg 96%
    03:00 +10°C° 0.3 mm 6 mps 736 mmHg 96%
    04:00 +10°C° 0.3 mm 6 mps 736 mmHg 96%
    05:00 +10°C° 0.3 mm 6 mps 736 mmHg 96%
    06:00 +11°C° 0.3 mm 6 mps 736 mmHg 95%
    07:00 +12°C° 0.3 mm 5 mps 736 mmHg 94%
    08:00 +13°C° 0.3 mm 5 mps 737 mmHg 93%
    09:00 +14°C° 0.7 mm 5 mps 737 mmHg 89%
    10:00 +15°C° 0.7 mm 4 mps 737 mmHg 85%
    11:00 +17°C° 0.7 mm 4 mps 737 mmHg 80%
    12:00 +18°C° 1 mm 4 mps 737 mmHg 79%
    13:00 +18°C° 1 mm 4 mps 737 mmHg 77%
    14:00 +18°C° 1 mm 4 mps 738 mmHg 76%
    15:00 +17°C° 0.4 mm 3 mps 737 mmHg 76%
    16:00 +17°C° 0.4 mm 3 mps 737 mmHg 77%
    17:00 +16°C° 0.4 mm 2 mps 737 mmHg 78%
    18:00 +15°C° 0 mm 2 mps 738 mmHg 81%
    19:00 +13°C° 0 mm 1 mps 738 mmHg 84%
    20:00 +11°C° 0 mm 0 mps 738 mmHg 87%
    21:00 +10°C° 0 mm 0 mps 738 mmHg 87%
    22:00 +10°C° 0 mm 0 mps 738 mmHg 87%
    23:00 +9°C° 0 mm 0 mps 738 mmHg 88%

    Day after tomorrow, 3 June, Wednesday

    Time Temperature Precipitation Wind Pressure Humidity
    00:00 +9°C° 0 mm 0 mps 738 mmHg 89%
    01:00 +10°C° 0 mm 1 mps 738 mmHg 89%
    02:00 +9°C° 0 mm 1 mps 738 mmHg 90%
    03:00 +10°C° 0 mm 1 mps 738 mmHg 91%
    04:00 +11°C° 0 mm 1 mps 738 mmHg 92%
    05:00 +11°C° 0 mm 1 mps 738 mmHg 93%
    06:00 +13°C° 0 mm 2 mps 738 mmHg 91%
    07:00 +14°C° 0 mm 2 mps 738 mmHg 89%
    08:00 +14°C° 0 mm 3 mps 738 mmHg 87%
    09:00 +16°C° 0 mm 3 mps 738 mmHg 86%
    10:00 +16°C° 0 mm 3 mps 738 mmHg 86%
    11:00 +16°C° 0 mm 3 mps 738 mmHg 85%
    12:00 +15°C° 0.1 mm 4 mps 738 mmHg 86%
    13:00 +17°C° 0.1 mm 4 mps 738 mmHg 86%
    14:00 +17°C° 0.1 mm 4 mps 737 mmHg 87%
    15:00 +17°C° 0.1 mm 4 mps 737 mmHg 88%
    16:00 +17°C° 0.1 mm 4 mps 737 mmHg 88%
    17:00 +17°C° 0.1 mm 3 mps 736 mmHg 89%
    18:00 +16°C° 1.4 mm 3 mps 736 mmHg 91%
    19:00 +16°C° 1.4 mm 3 mps 736 mmHg 93%
    20:00 +14°C° 1.4 mm 3 mps 736 mmHg 95%
    21:00 +15°C° 0.7 mm 2 mps 736 mmHg 96%
    22:00 +15°C° 0.7 mm 2 mps 736 mmHg 96%
    23:00 +14°C° 0.7 mm 2 mps 735 mmHg 96%

    4 June, Thursday

    Time Temperature Precipitation Wind Pressure Humidity
    00:00 +14°C° 0.3 mm 2 mps 735 mmHg 96%
    01:00 +14°C° 0.3 mm 2 mps 735 mmHg 96%
    02:00 +14°C° 0.3 mm 1 mps 735 mmHg 96%
    03:00 +14°C° 0 mm 2 mps 735 mmHg 96%
    04:00 +14°C° 0 mm 2 mps 735 mmHg 96%
    05:00 +14°C° 0 mm 2 mps 735 mmHg 96%
    06:00 +15°C° 0 mm 2 mps 735 mmHg 93%
    07:00 +14°C° 0 mm 3 mps 735 mmHg 90%
    08:00 +16°C° 0 mm 3 mps 735 mmHg 87%
    09:00 +17°C° 0.5 mm 3 mps 735 mmHg 83%
    10:00 +18°C° 0.5 mm 3 mps 736 mmHg 80%
    11:00 +19°C° 0.5 mm 3 mps 736 mmHg 76%
    12:00 +19°C° 0.6 mm 3 mps 736 mmHg 74%
    13:00 +20°C° 0.6 mm 3 mps 736 mmHg 71%
    14:00 +20°C° 0.6 mm 3 mps 736 mmHg 68%
    15:00 +20°C° 0.1 mm 3 mps 736 mmHg 70%
    16:00 +19°C° 0.1 mm 3 mps 736 mmHg 72%
    17:00 +19°C° 0.1 mm 3 mps 736 mmHg 74%
    18:00 +17°C° 0 mm 3 mps 736 mmHg 78%
    19:00 +16°C° 0 mm 2 mps 736 mmHg 83%
    20:00 +14°C° 0 mm 2 mps 736 mmHg 88%
    21:00 +14°C° 0 mm 2 mps 737 mmHg 89%
    22:00 +13°C° 0 mm 2 mps 737 mmHg 90%
    23:00 +12°C° 0 mm 2 mps 737 mmHg 91%

    5 June, Friday

    Time Temperature Precipitation Wind Pressure Humidity
    00:00 +12°C° 0 mm 2 mps 737 mmHg 92%
    01:00 +12°C° 0 mm 2 mps 737 mmHg 93%
    02:00 +10°C° 0 mm 2 mps 737 mmHg 93%
    03:00 +12°C° 0 mm 2 mps 738 mmHg 93%
    04:00 +12°C° 0 mm 2 mps 738 mmHg 92%
    05:00 +12°C° 0 mm 2 mps 738 mmHg 92%
    06:00 +13°C° 0.1 mm 3 mps 738 mmHg 86%
    07:00 +16°C° 0.1 mm 3 mps 738 mmHg 81%
    08:00 +17°C° 0.1 mm 4 mps 738 mmHg 76%
    09:00 +18°C° 0.9 mm 4 mps 738 mmHg 74%
    10:00 +19°C° 0.9 mm 5 mps 738 mmHg 73%
    11:00 +19°C° 0.9 mm 5 mps 738 mmHg 71%
    12:00 +20°C° 0.5 mm 5 mps 738 mmHg 72%
    13:00 +20°C° 0.5 mm 5 mps 738 mmHg 72%
    14:00 +20°C° 0.5 mm 5 mps 738 mmHg 73%
    15:00 +19°C° 0.3 mm 5 mps 737 mmHg 75%
    16:00 +19°C° 0.3 mm 4 mps 737 mmHg 78%
    17:00 +19°C° 0.3 mm 4 mps 737 mmHg 81%
    18:00 +17°C° 0.6 mm 5 mps 737 mmHg 85%
    19:00 +16°C° 0.6 mm 5 mps 737 mmHg 89%
    20:00 +15°C° 0.6 mm 6 mps 737 mmHg 93%
    21:00 +15°C° 1.2 mm 6 mps 736 mmHg 94%
    22:00 +15°C° 1.2 mm 6 mps 736 mmHg 95%
    23:00 +15°C° 1.2 mm 6 mps 736 mmHg 96%

    6 June, Saturday

    Time Temperature Precipitation Wind Pressure Humidity
    00:00 +15°C° 0.9 mm 5 mps 736 mmHg 96%
    01:00 +15°C° 0.9 mm 5 mps 736 mmHg 95%
    02:00 +15°C° 0.9 mm 5 mps 736 mmHg 95%
    03:00 +15°C° 0.1 mm 5 mps 736 mmHg 94%
    04:00 +15°C° 0.1 mm 5 mps 737 mmHg 93%
    05:00 +15°C° 0.1 mm 4 mps 737 mmHg 93%
    06:00 +15°C° 0 mm 4 mps 737 mmHg 90%
    07:00 +17°C° 0 mm 4 mps 738 mmHg 87%
    08:00 +18°C° 0 mm 4 mps 738 mmHg 84%
    09:00 +18°C° 0.1 mm 4 mps 739 mmHg 82%
    10:00 +19°C° 0.1 mm 4 mps 739 mmHg 80%
    11:00 +19°C° 0.1 mm 4 mps 740 mmHg 78%
    12:00 +20°C° 0.1 mm 4 mps 740 mmHg 76%
    13:00 +20°C° 0.1 mm 4 mps 740 mmHg 74%
    14:00 +20°C° 0.1 mm 4 mps 740 mmHg 72%
    15:00 +20°C° 0 mm 4 mps 741 mmHg 73%
    16:00 +20°C° 0 mm 3 mps 741 mmHg 74%
    17:00 +20°C° 0 mm 3 mps 741 mmHg 75%
    18:00 +18°C° 0 mm 2 mps 741 mmHg 78%
    19:00 +17°C° 0 mm 2 mps 741 mmHg 82%
    20:00 +15°C° 0 mm 1 mps 741 mmHg 85%
    21:00 +15°C° 0 mm 1 mps 741 mmHg 86%
    22:00 +14°C° 0 mm 1 mps 742 mmHg 87%
    23:00 +14°C° 0 mm 1 mps 742 mmHg 88%
    Show more